Change the Weather History Date:

Wednesday, April 24, 2013

  Actual Average Record
Temperature  
Mean Temperature 38 °F -  
Max Temperature 57 °F 57 °F 71 °F (2012)
Min Temperature 21 °F 26 °F 8 °F (1960)
Degree Days  
Heating Degree Days 27    
Moisture  
Dew Point 6 °F    
Average Humidity 30    
Maximum Humidity 58    
Minimum Humidity 13    
Precipitation  
Precipitation 0.00 in - - ()
Sea Level Pressure  
Sea Level Pressure 30.00 in    
Wind  
Wind Speed 7 mph (NNE)    
Max Wind Speed 18 mph    
Max Gust Speed 25 mph    
Visibility 10 miles    
Events      
Averages and records for this station are not official NWS values.
T = Trace of Precipitation, MM = Missing Value Source: NWS Daily Summary

Daily Weather History Graph

Daily Weather History Graph

Search for Another Location

Airport or City:

Trip Planner

Search our weather history database for the weather conditions in past years. The results will help you decide how hot, cold, wet, or windy it might be!

Date:

Astronomy

Apr. 24, 2013 Rise Set
Actual Time 6:41 AM MDT 8:12 PM MDT
Civil Twilight 6:13 AM MDT 8:40 PM MDT
Nautical Twilight 5:40 AM MDT 9:13 PM MDT
Astronomical Twilight 5:05 AM MDT 9:49 PM MDT
Moon 7:20 PM MDT (4/24) 5:45 AM MDT (4/24)
Length of Visible Light 14h 27m
Length of Day
13h 31m
Waxing Gibbous, 98% of the Moon is Illuminated
Apr 24
Waxing Gibbous
Apr 25
Full
May 2
Last Quarter
May 9
New
May 17
First Quarter

Hourly Weather History & Observations

Time (MDT) Temp. Windchill Dew Point Humidity Pressure Visibility Wind Dir Wind Speed Gust Speed Precip Events Conditions
12:53 AM 23.0 °F 13.1 °F 5.0 °F 46% 30.02 in 10.0 mi West 9.2 mph - N/A   Clear
1:53 AM 21.9 °F 17.2 °F 6.1 °F 51% 30.01 in 10.0 mi West 3.5 mph - N/A   Scattered Clouds
2:53 AM 23.0 °F 14.7 °F 7.0 °F 50% 29.99 in 10.0 mi West 6.9 mph - N/A   Mostly Cloudy
4:53 AM 21.9 °F 15.7 °F 8.1 °F 55% 29.99 in 10.0 mi WNW 4.6 mph - N/A   Overcast
5:53 AM 21.9 °F 17.2 °F 9.0 °F 58% 29.99 in 10.0 mi WNW 3.5 mph - N/A   Overcast
6:53 AM 24.1 °F 18.2 °F 8.1 °F 51% 30.01 in 10.0 mi NNW 4.6 mph - N/A   Overcast
7:53 AM 28.9 °F 22.8 °F 9.0 °F 43% 30.03 in 10.0 mi North 5.8 mph - N/A   Mostly Cloudy
8:53 AM 35.1 °F 28.6 °F 8.1 °F 33% 30.05 in 10.0 mi NE 8.1 mph - N/A   Clear
9:53 AM 42.1 °F 35.2 °F 8.1 °F 25% 30.05 in 10.0 mi NE 12.7 mph - N/A   Clear
10:53 AM 45.0 °F 40.1 °F 3.9 °F 18% 30.05 in 10.0 mi NE 9.2 mph - N/A   Clear
11:53 AM 46.9 °F - 1.9 °F 16% 30.06 in 10.0 mi Calm Calm - N/A   Clear
12:53 PM 51.1 °F - 1.9 °F 13% 30.03 in 10.0 mi Variable 5.8 mph - N/A   Clear
1:53 PM 53.1 °F - 5.0 °F 14% 30.00 in 10.0 mi Variable 3.5 mph 18.4 mph N/A   Clear
2:53 PM 54.0 °F - 7.0 °F 15% 29.99 in 10.0 mi Variable 4.6 mph - N/A   Clear
3:53 PM 54.0 °F - 6.1 °F 15% 29.98 in 10.0 mi South 4.6 mph - N/A   Clear
4:53 PM 55.9 °F - 5.0 °F 13% 29.96 in 10.0 mi SSE 18.4 mph 25.3 mph N/A   Clear
5:53 PM 55.0 °F - 3.9 °F 13% 29.96 in 10.0 mi SE 13.8 mph 19.6 mph N/A   Clear
6:53 PM 52.0 °F - 3.0 °F 14% 29.96 in 10.0 mi SSE 15.0 mph - N/A   Clear
7:53 PM 48.0 °F - 3.9 °F 16% 29.96 in 10.0 mi SE 10.4 mph - N/A   Clear
8:53 PM 37.9 °F 33.5 °F 6.1 °F 27% 29.99 in 10.0 mi SE 5.8 mph - N/A   Clear
9:53 PM 35.1 °F - 9.0 °F 34% 29.99 in 10.0 mi Calm Calm - N/A   Clear
10:53 PM 34.0 °F - 9.0 °F 35% 29.99 in 10.0 mi Calm Calm - N/A   Clear
11:53 PM 30.9 °F 27.5 °F 7.0 °F 37% 29.99 in 10.0 mi NE 3.5 mph - N/A   Clear